| time (UTC) | temp F | wind direction | speed knots | gust knots | rain 1hr in | rain 24hr in | rain mn in | humidity % | barometer mb |
| 20260510013407 | 58 | 296 | 6.1 | 9.6 | 0.00 | 0.00 | 0.00 | 37 | 1020.1 |
| 20260510012841 | 58 | 263 | 6.1 | 9.6 | 0.00 | 0.00 | 0.00 | 36 | 1020.1 |
| 20260510012314 | 58 | 279 | 6.1 | 9.6 | 0.00 | 0.00 | 0.00 | 37 | 1020.1 |
| 20260510011811 | 58 | 299 | 6.1 | 9.6 | 0.00 | 0.00 | 0.00 | 36 | 1020.1 |
| 20260510011306 | 58 | 0 | 7.0 | 10.4 | 0.00 | 0.00 | 0.00 | 37 | 1020.1 |
| 20260510010802 | 57 | 272 | 6.1 | 10.4 | 0.00 | 0.00 | 0.00 | 37 | 1020.1 |
| 20260510010507 | 58 | 276 | 6.1 | 8.7 | 0.00 | 0.00 | 0.00 | 37 | 1020.1 |
| 20260510005725 | 57 | 0 | 5.2 | 10.4 | 0.00 | 0.00 | 0.00 | 37 | 1020.1 |
| 20260510005458 | 57 | 298 | 6.1 | 10.4 | 0.00 | 0.00 | 0.00 | 37 | 1019.9 |
| 20260510005334 | 57 | 291 | 8.7 | 11.3 | 0.00 | 0.00 | 0.00 | 36 | 1019.9 |
| 20260510004121 | 57 | 259 | 7.8 | 12.2 | 0.00 | 0.00 | 0.00 | 36 | 1019.9 |
| 20260510003826 | 58 | 272 | 5.2 | 12.2 | 0.00 | 0.00 | 0.00 | 35 | 1019.9 |
| 20260510003028 | 58 | 257 | 3.5 | 7.0 | 0.00 | 0.00 | 0.00 | 36 | 1019.8 |
| 20260510002524 | 58 | 260 | 4.3 | 8.7 | 0.00 | 0.00 | 0.00 | 39 | 1019.8 |
| 20260510002230 | 58 | 306 | 4.3 | 8.7 | 0.00 | 0.00 | 0.00 | 36 | 1019.8 |
| 20260510001432 | 57 | 252 | 5.2 | 8.7 | 0.00 | 0.00 | 0.00 | 37 | 1019.8 |
| 20260510000929 | 58 | 0 | 6.1 | 10.4 | 0.00 | 0.00 | 0.00 | 35 | 1019.8 |
| 20260510000403 | 58 | 285 | 7.0 | 12.2 | 0.00 | 0.00 | 0.00 | 35 | 1019.8 |
| 20260509235858 | 58 | 279 | 7.8 | 12.2 | 0.00 | 0.00 | 0.00 | 36 | 1019.8 |
| 20260509235607 | 59 | 261 | 6.1 | 10.4 | 0.00 | 0.00 | 0.00 | 34 | 1019.6 |
| 20260509235332 | 58 | 277 | 7.8 | 12.2 | 0.00 | 0.00 | 0.00 | 35 | 1019.7 |
| 20260509234819 | 59 | 256 | 6.1 | 10.4 | 0.00 | 0.00 | 0.00 | 32 | 1019.6 |
| 20260509233818 | 60 | 283 | 6.1 | 10.4 | 0.00 | 0.00 | 0.00 | 30 | 1019.6 |
| 20260509233253 | 60 | 273 | 6.1 | 11.3 | 0.00 | 0.00 | 0.00 | 31 | 1019.6 |
| 20260509232726 | 61 | 279 | 4.3 | 11.3 | 0.00 | 0.00 | 0.00 | 32 | 1019.6 |
| 20260509232223 | 60 | 259 | 5.2 | 9.6 | 0.00 | 0.00 | 0.00 | 31 | 1019.6 |
| 20260509231650 | 60 | 332 | 7.0 | 11.3 | 0.00 | 0.00 | 0.00 | 33 | 1019.6 |
| 20260509231417 | 60 | 264 | 7.0 | 13.0 | 0.00 | 0.00 | 0.00 | 31 | 1019.6 |
| 20260509230642 | 60 | 252 | 6.1 | 13.0 | 0.00 | 0.00 | 0.00 | 32 | 1019.5 |
| 20260509230116 | 60 | 296 | 5.2 | 10.4 | 0.00 | 0.00 | 0.00 | 36 | 1019.6 |
| 20260509225612 | 59 | 302 | 5.2 | 11.3 | 0.00 | 0.00 | 0.00 | 35 | 1019.6 |
| 20260509225342 | 59 | 317 | 5.2 | 11.3 | 0.00 | 0.00 | 0.00 | 34 | 1019.6 |
| 20260509224838 | 59 | 257 | 7.0 | 12.2 | 0.00 | 0.00 | 0.00 | 38 | 1019.6 |
| 20260509224040 | 59 | 0 | 6.1 | 12.2 | 0.00 | 0.00 | 0.00 | 35 | 1019.6 |
| 20260509223808 | 59 | 260 | 5.2 | 11.3 | 0.00 | 0.00 | 0.00 | 37 | 1019.6 |
| 20260509223242 | 59 | 278 | 5.2 | 11.3 | 0.00 | 0.00 | 0.00 | 36 | 1019.6 |
| 20260509222737 | 59 | 259 | 5.2 | 10.4 | 0.00 | 0.00 | 0.00 | 34 | 1019.6 |
| 20260509221940 | 59 | 279 | 5.2 | 10.4 | 0.00 | 0.00 | 0.00 | 34 | 1019.7 |
| 20260509221437 | 60 | 289 | 6.1 | 11.3 | 0.00 | 0.00 | 0.00 | 33 | 1019.6 |
| 20260509221118 | 58 | 267 | 7.0 | 13.0 | 0.00 | 0.00 | 0.00 | 34 | 1019.7 |
| 20260509220953 | 59 | 265 | 7.0 | 11.3 | 0.00 | 0.00 | 0.00 | 35 | 1019.7 |
| 20260509215819 | 58 | 269 | 7.8 | 13.0 | 0.00 | 0.00 | 0.00 | 34 | 1019.7 |
| 20260509215257 | 59 | 269 | 7.8 | 14.8 | 0.00 | 0.00 | 0.00 | 33 | 1019.7 |
| 20260509214758 | 60 | 281 | 7.8 | 14.8 | 0.00 | 0.00 | 0.00 | 32 | 1019.6 |
| 20260509214234 | 61 | 308 | 6.1 | 14.8 | 0.00 | 0.00 | 0.00 | 32 | 1019.5 |
| 20260509213711 | 60 | 286 | 4.3 | 13.0 | 0.00 | 0.00 | 0.00 | 34 | 1019.5 |
| 20260509213212 | 61 | 313 | 7.0 | 13.9 | 0.00 | 0.00 | 0.00 | 34 | 1019.6 |
| 20260509212650 | 60 | 283 | 6.1 | 13.9 | 0.00 | 0.00 | 0.00 | 33 | 1019.7 |
| 20260509212150 | 60 | 236 | 6.1 | 11.3 | 0.00 | 0.00 | 0.00 | 34 | 1019.7 |
| 20260509211650 | 60 | 48 | 7.0 | 17.4 | 0.00 | 0.00 | 0.00 | 32 | 1019.7 |
| 20260509211148 | 60 | 263 | 6.1 | 17.4 | 0.00 | 0.00 | 0.00 | 34 | 1019.7 |
| 20260509210624 | 59 | 246 | 7.0 | 14.8 | 0.00 | 0.00 | 0.00 | 33 | 1019.7 |
| 20260509210059 | 59 | 271 | 8.7 | 15.6 | 0.00 | 0.00 | 0.00 | 34 | 1019.8 |
| 20260509205541 | 59 | 223 | 9.6 | 16.5 | 0.00 | 0.00 | 0.00 | 34 | 1019.8 |
| 20260509205042 | 59 | 244 | 7.8 | 16.5 | 0.00 | 0.00 | 0.00 | 33 | 1019.8 |
| 20260509204524 | 59 | 294 | 7.8 | 16.5 | 0.00 | 0.00 | 0.00 | 35 | 1019.8 |
| 20260509204004 | 59 | 269 | 8.7 | 16.5 | 0.00 | 0.00 | 0.00 | 33 | 1019.8 |
| 20260509203457 | 58 | 303 | 8.7 | 14.8 | 0.00 | 0.00 | 0.00 | 35 | 1019.8 |
| 20260509203451 | 59 | 249 | 8.7 | 13.0 | 0.00 | 0.00 | 0.00 | 36 | 1019.8 |
| 20260509202702 | 59 | 263 | 8.7 | 14.8 | 0.00 | 0.00 | 0.00 | 35 | 1019.8 |
| 20260509201904 | 59 | 304 | 8.7 | 14.8 | 0.00 | 0.00 | 0.00 | 34 | 1019.8 |
| 20260509201347 | 59 | 282 | 7.8 | 14.8 | 0.00 | 0.00 | 0.00 | 36 | 1019.8 |
| 20260509200821 | 58 | 281 | 7.0 | 11.3 | 0.00 | 0.00 | 0.00 | 36 | 1019.8 |
| 20260509200316 | 57 | 270 | 7.0 | 13.9 | 0.00 | 0.00 | 0.00 | 39 | 1019.8 |
| 20260509200046 | 56 | 316 | 7.0 | 13.9 | 0.00 | 0.00 | 0.00 | 38 | 1019.8 |
| 20260509195317 | 56 | 263 | 7.8 | 14.8 | 0.00 | 0.00 | 0.00 | 38 | 1019.9 |
| 20260509194815 | 56 | 327 | 7.8 | 14.8 | 0.00 | 0.00 | 0.00 | 38 | 1019.8 |
| 20260509194315 | 55 | 295 | 8.7 | 13.0 | 0.00 | 0.00 | 0.00 | 39 | 1019.9 |
| 20260509193816 | 55 | 277 | 9.6 | 13.0 | 0.00 | 0.00 | 0.00 | 38 | 1019.8 |
| 20260509193302 | 55 | 292 | 9.6 | 13.9 | 0.00 | 0.00 | 0.00 | 37 | 1019.8 |
| 20260509192802 | 55 | 261 | 8.7 | 13.9 | 0.00 | 0.00 | 0.00 | 37 | 1019.8 |
| 20260509192534 | 55 | 286 | 9.6 | 17.4 | 0.00 | 0.00 | 0.00 | 39 | 1019.8 |
| 20260509191802 | 56 | 273 | 8.7 | 17.4 | 0.00 | 0.00 | 0.00 | 37 | 1019.8 |
| 20260509191303 | 56 | 244 | 9.6 | 15.6 | 0.00 | 0.00 | 0.00 | 38 | 1019.7 |
| 20260509191034 | 57 | 247 | 10.4 | 15.6 | 0.00 | 0.00 | 0.00 | 39 | 1019.7 |
| 20260509190238 | 57 | 265 | 10.4 | 18.2 | 0.00 | 0.00 | 0.00 | 39 | 1019.6 |
| 20260509185715 | 58 | 267 | 8.7 | 18.2 | 0.00 | 0.00 | 0.00 | 34 | 1019.6 |
| 20260509185149 | 58 | 298 | 7.8 | 14.8 | 0.00 | 0.00 | 0.00 | 38 | 1019.6 |
| 20260509184645 | 57 | 0 | 7.8 | 14.8 | 0.00 | 0.00 | 0.00 | 37 | 1019.5 |
| 20260509184119 | 57 | 267 | 10.4 | 16.5 | 0.00 | 0.00 | 0.00 | 36 | 1019.5 |
| 20260509183554 | 58 | 268 | 10.4 | 18.2 | 0.00 | 0.00 | 0.00 | 35 | 1019.6 |
| 20260509183028 | 57 | 0 | 9.6 | 18.2 | 0.00 | 0.00 | 0.00 | 37 | 1019.6 |
| 20260509182733 | 56 | 249 | 10.4 | 16.5 | 0.00 | 0.00 | 0.00 | 39 | 1019.6 |
| 20260509181935 | 56 | 293 | 9.6 | 16.5 | 0.00 | 0.00 | 0.00 | 38 | 1019.5 |
| 20260509181411 | 55 | 245 | 11.3 | 20.9 | 0.00 | 0.00 | 0.00 | 37 | 1019.6 |
| 20260509180845 | 56 | 252 | 10.4 | 20.9 | 0.00 | 0.00 | 0.00 | 38 | 1019.6 |
| 20260509180341 | 55 | 252 | 10.4 | 18.2 | 0.00 | 0.00 | 0.00 | 39 | 1019.7 |
| 20260509175837 | 55 | 281 | 10.4 | 18.2 | 0.00 | 0.00 | 0.00 | 40 | 1019.7 |
| 20260509175543 | 56 | 290 | 10.4 | 20.0 | 0.00 | 0.00 | 0.00 | 37 | 1019.7 |
| 20260509174807 | 55 | 279 | 10.4 | 20.0 | 0.00 | 0.00 | 0.00 | 37 | 1019.7 |
| 20260509174306 | 55 | 241 | 10.4 | 15.6 | 0.00 | 0.00 | 0.00 | 40 | 1019.6 |
| 20260509173802 | 55 | 257 | 9.6 | 15.6 | 0.00 | 0.00 | 0.00 | 39 | 1019.7 |
| 20260509173235 | 55 | 0 | 9.6 | 15.6 | 0.00 | 0.00 | 0.00 | 39 | 1019.6 |
| 20260509172732 | 55 | 242 | 10.4 | 17.4 | 0.00 | 0.00 | 0.00 | 39 | 1019.6 |
| 20260509172205 | 54 | 252 | 10.4 | 17.4 | 0.00 | 0.00 | 0.00 | 39 | 1019.6 |
| 20260509171639 | 55 | 292 | 9.6 | 17.4 | 0.00 | 0.00 | 0.00 | 38 | 1019.6 |
| 20260509171135 | 55 | 305 | 9.6 | 17.4 | 0.00 | 0.00 | 0.00 | 38 | 1019.6 |
| 20260509170633 | 55 | 273 | 10.4 | 17.4 | 0.00 | 0.00 | 0.00 | 39 | 1019.6 |
| 20260509170129 | 54 | 310 | 11.3 | 20.0 | 0.00 | 0.00 | 0.00 | 39 | 1019.6 |
| 20260509165607 | 54 | 278 | 9.6 | 18.2 | 0.00 | 0.00 | 0.00 | 38 | 1019.7 |
| 20260509165603 | 54 | 247 | 9.6 | 18.2 | 0.00 | 0.00 | 0.00 | 39 | 1019.6 |
| 20260509164534 | 54 | 237 | 10.4 | 17.4 | 0.00 | 0.00 | 0.00 | 39 | 1019.6 |
| 20260509164029 | 53 | 227 | 11.3 | 17.4 | 0.00 | 0.00 | 0.00 | 40 | 1019.6 |
| 20260509163501 | 53 | 290 | 11.3 | 20.0 | 0.00 | 0.00 | 0.00 | 39 | 1019.6 |
| 20260509162959 | 53 | 245 | 11.3 | 20.0 | 0.00 | 0.00 | 0.00 | 39 | 1019.6 |
| 20260509162455 | 53 | 248 | 12.2 | 20.0 | 0.00 | 0.00 | 0.00 | 40 | 1019.7 |
| 20260509161933 | 53 | 281 | 11.3 | 20.0 | 0.00 | 0.00 | 0.00 | 38 | 1019.6 |
| 20260509161929 | 53 | 0 | 12.2 | 20.0 | 0.00 | 0.00 | 0.00 | 39 | 1019.6 |
| 20260509160859 | 53 | 256 | 10.4 | 20.0 | 0.00 | 0.00 | 0.00 | 39 | 1019.6 |
| 20260509160334 | 52 | 248 | 11.3 | 17.4 | 0.00 | 0.00 | 0.00 | 41 | 1019.5 |
| 20260509155808 | 52 | 257 | 10.4 | 17.4 | 0.00 | 0.00 | 0.00 | 41 | 1019.6 |
| 20260509155242 | 52 | 0 | 10.4 | 16.5 | 0.00 | 0.00 | 0.00 | 41 | 1019.5 |
| 20260509154716 | 52 | 282 | 9.6 | 15.6 | 0.00 | 0.00 | 0.00 | 40 | 1019.5 |
| 20260509154421 | 52 | 0 | 9.6 | 15.6 | 0.00 | 0.00 | 0.00 | 41 | 1019.3 |
| 20260509153623 | 52 | 262 | 10.4 | 16.5 | 0.00 | 0.00 | 0.00 | 42 | 1019.3 |
| 20260509153057 | 52 | 264 | 9.6 | 16.5 | 0.00 | 0.00 | 0.00 | 42 | 1019.3 |
| 20260509152825 | 52 | 269 | 9.6 | 17.4 | 0.00 | 0.00 | 0.00 | 42 | 1019.3 |
| 20260509152025 | 52 | 270 | 10.4 | 18.2 | 0.00 | 0.00 | 0.00 | 44 | 1019.3 |
| 20260509151523 | 51 | 285 | 10.4 | 18.2 | 0.00 | 0.00 | 0.00 | 42 | 1019.3 |
| 20260509151019 | 51 | 236 | 9.6 | 18.2 | 0.00 | 0.00 | 0.00 | 42 | 1019.3 |
| 20260509150451 | 51 | 0 | 8.7 | 18.2 | 0.00 | 0.00 | 0.00 | 43 | 1019.3 |
| 20260509145926 | 51 | 252 | 7.8 | 14.8 | 0.00 | 0.00 | 0.00 | 45 | 1019.3 |
| 20260509145359 | 51 | 240 | 9.6 | 15.6 | 0.00 | 0.00 | 0.00 | 45 | 1019.3 |
| 20260509144856 | 50 | 264 | 11.3 | 18.2 | 0.00 | 0.00 | 0.00 | 45 | 1019.2 |
| 20260509144350 | 50 | 250 | 11.3 | 18.2 | 0.00 | 0.00 | 0.00 | 44 | 1019.2 |
| 20260509144325 | 50 | 252 | 12.2 | 18.2 | 0.00 | 0.00 | 0.00 | 45 | 1019.1 |
| 20260509143320 | 50 | 261 | 11.3 | 18.2 | 0.00 | 0.00 | 0.00 | 45 | 1019.1 |
| 20260509142753 | 50 | 0 | 9.6 | 17.4 | 0.00 | 0.00 | 0.00 | 46 | 1019.1 |
| 20260509142252 | 50 | 267 | 10.4 | 17.4 | 0.00 | 0.00 | 0.00 | 48 | 1018.9 |
| 20260509141747 | 49 | 273 | 11.3 | 17.4 | 0.00 | 0.00 | 0.00 | 48 | 1018.9 |
| 20260509141233 | 48 | 267 | 8.7 | 18.2 | 0.00 | 0.00 | 0.00 | 50 | 1018.9 |
| 20260509140732 | 46 | 254 | 3.5 | 18.2 | 0.00 | 0.00 | 0.00 | 54 | 1018.9 |
| 20260509140229 | 44 | 264 | 0.0 | 3.5 | 0.00 | 0.00 | 0.00 | 61 | 1019.1 |
| 20260509135731 | 43 | 273 | 0.0 | 0.9 | 0.00 | 0.00 | 0.00 | 62 | 1019.1 |
| 20260509135228 | 42 | 273 | 0.9 | 3.5 | 0.00 | 0.00 | 0.00 | 66 | 1019.1 |
| 20260509134727 | 42 | 272 | 0.9 | 3.5 | 0.00 | 0.00 | 0.00 | 68 | 1019.1 |
| 20260509134213 | 42 | 311 | 1.7 | 2.6 | 0.00 | 0.00 | 0.00 | 68 | 1019.1 |
| 20260509133922 | 40 | 333 | 2.6 | 3.5 | 0.00 | 0.00 | 0.00 | 68 | 1019.1 |
| 20260509133400 | 38 | 330 | 1.7 | 3.5 | 0.00 | 0.00 | 0.00 | 74 | 1019.0 |
| 20260509132631 | 35 | 281 | 0.9 | 2.6 | 0.00 | 0.00 | 0.00 | 78 | 1019.1 |
| 20260509132106 | 34 | 281 | 0.9 | 2.6 | 0.00 | 0.00 | 0.00 | 79 | 1019.1 |
| 20260509131543 | 34 | 264 | 0.9 | 3.5 | 0.00 | 0.00 | 0.00 | 79 | 1019.0 |
| 20260509131024 | 35 | 264 | 1.7 | 3.5 | 0.00 | 0.00 | 0.00 | 77 | 1018.9 |
| 20260509130523 | 35 | 269 | 0.9 | 2.6 | 0.00 | 0.00 | 0.00 | 79 | 1018.9 |
| 20260509130233 | 33 | 262 | 0.0 | 0.9 | 0.00 | 0.00 | 0.00 | 81 | 1018.9 |
| 20260509125442 | 33 | 261 | 0.0 | 0.9 | 0.00 | 0.00 | 0.00 | 81 | 1018.9 |
| 20260509124947 | 33 | 261 | 0.9 | 3.5 | 0.00 | 0.00 | 0.00 | 81 | 1018.9 |
| 20260509124943 | 33 | 261 | 0.0 | 1.7 | 0.00 | 0.00 | 0.00 | 81 | 1018.9 |
| 20260509123918 | 33 | 261 | 1.7 | 3.5 | 0.00 | 0.00 | 0.00 | 83 | 1018.8 |
| 20260509123418 | 32 | 252 | 1.7 | 2.6 | 0.00 | 0.00 | 0.00 | 83 | 1018.6 |
| 20260509122854 | 32 | 294 | 2.6 | 6.1 | 0.00 | 0.00 | 0.00 | 83 | 1018.8 |
| 20260509122343 | 32 | 271 | 2.6 | 6.1 | 0.00 | 0.00 | 0.00 | 82 | 1018.6 |
| 20260509121841 | 33 | 261 | 1.7 | 4.3 | 0.00 | 0.00 | 0.00 | 80 | 1018.5 |
| 20260509121342 | 33 | 263 | 2.6 | 5.2 | 0.00 | 0.00 | 0.00 | 81 | 1018.5 |
| 20260509120825 | 33 | 259 | 1.7 | 5.2 | 0.00 | 0.00 | 0.00 | 81 | 1018.5 |
| 20260509120303 | 33 | 261 | 1.7 | 5.2 | 0.00 | 0.00 | 0.00 | 83 | 1018.4 |
| 20260509115802 | 33 | 263 | 2.6 | 4.3 | 0.00 | 0.00 | 0.00 | 82 | 1018.4 |
| 20260509115306 | 33 | 261 | 3.5 | 6.1 | 0.00 | 0.00 | 0.00 | 82 | 1018.3 |
| 20260509114738 | 33 | 253 | 3.5 | 6.1 | 0.00 | 0.00 | 0.00 | 82 | 1018.2 |
| 20260509114211 | 33 | 248 | 1.7 | 4.3 | 0.00 | 0.00 | 0.00 | 81 | 1018.2 |
| 20260509113645 | 34 | 251 | 2.6 | 7.0 | 0.00 | 0.00 | 0.00 | 81 | 1018.0 |
| 20260509113118 | 34 | 251 | 3.5 | 7.0 | 0.00 | 0.00 | 0.00 | 81 | 1018.0 |
| 20260509112553 | 35 | 259 | 3.5 | 6.1 | 0.00 | 0.00 | 0.00 | 81 | 1018.0 |
| 20260509112257 | 34 | 259 | 3.5 | 4.3 | 0.00 | 0.00 | 0.00 | 81 | 1018.0 |
| 20260509111524 | 34 | 258 | 2.6 | 4.3 | 0.00 | 0.00 | 0.00 | 81 | 1018.0 |
| 20260509110959 | 34 | 244 | 1.7 | 3.5 | 0.00 | 0.00 | 0.00 | 82 | 1017.9 |
| 20260509110432 | 34 | 242 | 1.7 | 3.5 | 0.00 | 0.00 | 0.00 | 82 | 1017.8 |
| 20260509105907 | 34 | 242 | 0.9 | 3.5 | 0.00 | 0.00 | 0.00 | 82 | 1017.8 |
| 20260509105402 | 34 | 241 | 0.0 | 3.5 | 0.00 | 0.00 | 0.00 | 82 | 1017.8 |
| 20260509104900 | 34 | 239 | 0.0 | 1.7 | 0.00 | 0.00 | 0.00 | 82 | 1017.7 |
| 20260509104356 | 34 | 239 | 0.9 | 3.5 | 0.00 | 0.00 | 0.00 | 82 | 1017.7 |
| 20260509104335 | 34 | 239 | 1.7 | 2.6 | 0.00 | 0.00 | 0.00 | 82 | 1017.5 |
| 20260509103304 | 35 | 240 | 1.7 | 3.5 | 0.00 | 0.00 | 0.00 | 82 | 1017.5 |
| 20260509102738 | 35 | 240 | 1.7 | 4.3 | 0.00 | 0.00 | 0.00 | 81 | 1017.5 |
| 20260509102212 | 35 | 241 | 1.7 | 3.5 | 0.00 | 0.00 | 0.00 | 81 | 1017.3 |
| 20260509101708 | 36 | 244 | 1.7 | 4.3 | 0.00 | 0.00 | 0.00 | 80 | 1017.3 |
| 20260509101206 | 37 | 244 | 1.7 | 4.3 | 0.00 | 0.00 | 0.00 | 78 | 1017.3 |
| 20260509100702 | 38 | 250 | 2.6 | 7.0 | 0.00 | 0.00 | 0.00 | 76 | 1017.2 |
| 20260509100136 | 38 | 248 | 3.5 | 7.0 | 0.00 | 0.00 | 0.00 | 74 | 1017.2 |
| 20260509095842 | 40 | 267 | 4.3 | 7.0 | 0.00 | 0.00 | 0.00 | 75 | 1017.1 |
| 20260509095107 | 38 | 267 | 5.2 | 7.0 | 0.00 | 0.00 | 0.00 | 79 | 1017.0 |
| 20260509094541 | 37 | 259 | 6.1 | 7.8 | 0.00 | 0.00 | 0.00 | 80 | 1016.9 |
| 20260509094036 | 37 | 250 | 6.1 | 7.8 | 0.00 | 0.00 | 0.00 | 80 | 1016.9 |
| 20260509093511 | 38 | 255 | 6.1 | 7.8 | 0.00 | 0.00 | 0.00 | 78 | 1016.7 |
| 20260509093008 | 38 | 259 | 5.2 | 7.8 | 0.00 | 0.00 | 0.00 | 77 | 1016.7 |
| 20260509092505 | 40 | 249 | 5.2 | 7.8 | 0.00 | 0.00 | 0.00 | 74 | 1016.6 |
| 20260509091938 | 40 | 264 | 6.1 | 8.7 | 0.00 | 0.00 | 0.00 | 74 | 1016.5 |
| 20260509091643 | 42 | 0 | 7.0 | 10.4 | 0.00 | 0.00 | 0.00 | 70 | 1016.4 |
| 20260509090908 | 42 | 272 | 7.8 | 10.4 | 0.00 | 0.00 | 0.00 | 70 | 1016.4 |
| 20260509090342 | 42 | 273 | 7.0 | 8.7 | 0.00 | 0.00 | 0.00 | 71 | 1016.3 |
| 20260509085839 | 41 | 281 | 5.2 | 8.7 | 0.00 | 0.00 | 0.00 | 71 | 1016.2 |
| 20260509085545 | 44 | 0 | 5.2 | 8.7 | 0.00 | 0.00 | 0.00 | 68 | 1015.9 |
| 20260509084746 | 43 | 0 | 5.2 | 7.8 | 0.00 | 0.00 | 0.00 | 70 | 1016.0 |
| 20260509084452 | 42 | 277 | 4.3 | 7.8 | 0.00 | 0.00 | 0.00 | 72 | 1016.0 |
| 20260509083654 | 42 | 273 | 2.6 | 7.8 | 0.00 | 0.00 | 0.00 | 74 | 1016.0 |
| 20260509083129 | 40 | 285 | 1.7 | 4.3 | 0.00 | 0.00 | 0.00 | 78 | 1016.0 |
| 20260509082626 | 40 | 0 | 1.7 | 4.3 | 0.00 | 0.00 | 0.00 | 76 | 1016.0 |
| 20260509082122 | 40 | 301 | 1.7 | 4.3 | 0.00 | 0.00 | 0.00 | 78 | 1015.9 |
| 20260509081828 | 40 | 265 | 0.9 | 3.5 | 0.00 | 0.00 | 0.00 | 76 | 1016.0 |
| 20260509081302 | 41 | 252 | 0.9 | 3.5 | 0.00 | 0.00 | 0.00 | 75 | 1015.8 |
| 20260509080504 | 42 | 267 | 1.7 | 3.5 | 0.00 | 0.00 | 0.00 | 74 | 1015.9 |
| 20260509080000 | 42 | 255 | 2.6 | 6.1 | 0.00 | 0.00 | 0.00 | 74 | 1015.9 |
| 20260509075434 | 42 | 244 | 2.6 | 6.1 | 0.00 | 0.00 | 0.00 | 74 | 1015.8 |
| 20260509074923 | 43 | 248 | 1.7 | 4.3 | 0.00 | 0.00 | 0.00 | 72 | 1015.8 |
| 20260509074421 | 43 | 255 | 1.7 | 3.5 | 0.00 | 0.00 | 0.00 | 73 | 1015.8 |
| 20260509073922 | 43 | 256 | 2.6 | 5.2 | 0.00 | 0.00 | 0.00 | 72 | 1015.8 |
| 20260509073410 | 44 | 257 | 2.6 | 5.2 | 0.00 | 0.00 | 0.00 | 70 | 1015.7 |
| 20260509073145 | 45 | 257 | 1.7 | 3.5 | 0.00 | 0.00 | 0.00 | 70 | 1015.6 |
| 20260509072407 | 44 | 264 | 0.0 | 3.5 | 0.00 | 0.00 | 0.00 | 70 | 1015.6 |
| 20260509071902 | 44 | 298 | 0.0 | 0.0 | 0.00 | 0.00 | 0.00 | 70 | 1015.6 |
| 20260509071348 | 44 | 298 | 0.0 | 0.9 | 0.00 | 0.00 | 0.00 | 70 | 1015.6 |
| 20260509070848 | 44 | 298 | 0.0 | 3.5 | 0.00 | 0.00 | 0.00 | 70 | 1015.6 |
| 20260509070322 | 44 | 298 | 0.9 | 3.5 | 0.00 | 0.00 | 0.00 | 70 | 1015.4 |
| 20260509065820 | 44 | 248 | 1.7 | 4.3 | 0.00 | 0.00 | 0.00 | 70 | 1015.4 |
| 20260509065255 | 45 | 248 | 1.7 | 4.3 | 0.00 | 0.00 | 0.00 | 69 | 1015.3 |
| 20260509064750 | 46 | 313 | 0.9 | 2.6 | 0.00 | 0.00 | 0.00 | 67 | 1015.2 |
| 20260509064224 | 47 | 316 | 0.9 | 2.6 | 0.00 | 0.00 | 0.00 | 65 | 1015.2 |
| 20260509063720 | 47 | 317 | 0.9 | 2.6 | 0.00 | 0.00 | 0.00 | 63 | 1015.1 |
| 20260509063157 | 48 | 318 | 1.7 | 2.6 | 0.00 | 0.00 | 0.00 | 63 | 1015.1 |
| 20260509062928 | 48 | 320 | 0.9 | 2.6 | 0.00 | 0.00 | 0.00 | 63 | 1015.1 |
| 20260509062130 | 49 | 324 | 0.9 | 1.7 | 0.00 | 0.00 | 0.00 | 62 | 1015.0 |
| 20260509061609 | 49 | 324 | 0.9 | 3.5 | 0.00 | 0.00 | 0.00 | 61 | 1015.1 |
| 20260509061338 | 49 | 324 | 0.9 | 3.5 | 0.00 | 0.00 | 0.00 | 58 | 1015.1 |
| 20260509060547 | 50 | 274 | 0.0 | 0.9 | 0.00 | 0.00 | 0.00 | 58 | 1015.1 |
| 20260509060047 | 51 | 274 | 0.0 | 1.7 | 0.00 | 0.00 | 0.00 | 58 | 1015.1 |
| 20260509055528 | 51 | 274 | 2.6 | 3.5 | 0.00 | 0.00 | 0.00 | 57 | 1014.9 |
| 20260509055522 | 51 | 274 | 0.9 | 2.6 | 0.00 | 0.00 | 0.00 | 57 | 1015.1 |
| 20260509054517 | 51 | 274 | 3.5 | 7.0 | 0.00 | 0.00 | 0.00 | 57 | 1014.9 |
| 20260509054014 | 52 | 269 | 4.3 | 7.0 | 0.00 | 0.00 | 0.00 | 56 | 1014.7 |
| 20260509053447 | 52 | 274 | 4.3 | 7.0 | 0.00 | 0.00 | 0.00 | 55 | 1014.6 |
| 20260509052944 | 53 | 273 | 4.3 | 7.0 | 0.00 | 0.00 | 0.00 | 54 | 1014.6 |
| 20260509052416 | 53 | 273 | 4.3 | 7.0 | 0.00 | 0.00 | 0.00 | 53 | 1014.6 |
| 20260509051914 | 54 | 304 | 3.5 | 7.0 | 0.00 | 0.00 | 0.00 | 53 | 1014.5 |
| 20260509051349 | 54 | 286 | 3.5 | 6.1 | 0.00 | 0.00 | 0.00 | 53 | 1014.5 |
| 20260509050848 | 54 | 280 | 3.5 | 5.2 | 0.00 | 0.00 | 0.00 | 53 | 1014.5 |
| 20260509050347 | 54 | 0 | 3.5 | 7.8 | 0.00 | 0.00 | 0.00 | 53 | 1014.5 |
| 20260509045847 | 54 | 292 | 4.3 | 7.8 | 0.00 | 0.00 | 0.00 | 52 | 1014.6 |
| 20260509045347 | 55 | 277 | 5.2 | 9.6 | 0.00 | 0.00 | 0.00 | 51 | 1014.6 |
| 20260509044822 | 55 | 291 | 5.2 | 9.6 | 0.00 | 0.00 | 0.00 | 51 | 1014.5 |
| 20260509044258 | 55 | 279 | 3.5 | 7.8 | 0.00 | 0.00 | 0.00 | 50 | 1014.6 |
| 20260509043755 | 55 | 288 | 3.5 | 7.8 | 0.00 | 0.00 | 0.00 | 50 | 1014.6 |
| 20260509043240 | 55 | 290 | 4.3 | 7.8 | 0.00 | 0.00 | 0.00 | 50 | 1014.6 |
| 20260509042740 | 55 | 0 | 4.3 | 7.0 | 0.00 | 0.00 | 0.00 | 49 | 1014.5 |
| 20260509042224 | 55 | 295 | 3.5 | 7.0 | 0.00 | 0.00 | 0.00 | 49 | 1014.5 |
| 20260509041721 | 55 | 0 | 2.6 | 6.1 | 0.00 | 0.00 | 0.00 | 49 | 1014.5 |
| 20260509041221 | 56 | 284 | 3.5 | 6.1 | 0.00 | 0.00 | 0.00 | 48 | 1014.5 |
| 20260509040722 | 56 | 0 | 4.3 | 7.0 | 0.00 | 0.00 | 0.00 | 47 | 1014.6 |
| 20260509040428 | 56 | 0 | 5.2 | 8.7 | 0.00 | 0.00 | 0.00 | 46 | 1014.5 |
| 20260509035929 | 56 | 268 | 5.2 | 9.6 | 0.00 | 0.00 | 0.00 | 46 | 1014.6 |
| 20260509035157 | 57 | 275 | 4.3 | 9.6 | 0.00 | 0.00 | 0.00 | 46 | 1014.5 |
| 20260509034906 | 57 | 273 | 3.5 | 7.0 | 0.00 | 0.00 | 0.00 | 45 | 1014.4 |
| 20260509034138 | 57 | 279 | 2.6 | 7.0 | 0.00 | 0.00 | 0.00 | 44 | 1014.3 |
| 20260509033618 | 58 | 0 | 3.5 | 8.7 | 0.00 | 0.00 | 0.00 | 43 | 1014.2 |
| 20260509033103 | 58 | 259 | 4.3 | 8.7 | 0.00 | 0.00 | 0.00 | 42 | 1014.0 |
| 20260509032603 | 58 | 294 | 3.5 | 7.8 | 0.00 | 0.00 | 0.00 | 41 | 1014.2 |
| 20260509032103 | 59 | 264 | 2.6 | 7.0 | 0.00 | 0.00 | 0.00 | 40 | 1014.0 |
| 20260509031600 | 59 | 266 | 3.5 | 9.6 | 0.00 | 0.00 | 0.00 | 37 | 1013.9 |
| 20260509031036 | 59 | 243 | 3.5 | 9.6 | 0.00 | 0.00 | 0.00 | 38 | 1014.0 |
| 20260509030515 | 59 | 288 | 2.6 | 8.7 | 0.00 | 0.00 | 0.00 | 39 | 1013.9 |
| 20260509030010 | 58 | 293 | 3.5 | 8.7 | 0.00 | 0.00 | 0.00 | 40 | 1013.8 |
| 20260509025449 | 58 | 246 | 4.3 | 7.8 | 0.00 | 0.00 | 0.00 | 41 | 1013.8 |
| 20260509024929 | 59 | 267 | 4.3 | 7.0 | 0.00 | 0.00 | 0.00 | 40 | 1013.7 |
| 20260509024430 | 59 | 273 | 5.2 | 8.7 | 0.00 | 0.00 | 0.00 | 38 | 1013.6 |
| 20260509023904 | 60 | 284 | 5.2 | 8.7 | 0.00 | 0.00 | 0.00 | 38 | 1013.4 |
| 20260509023403 | 60 | 284 | 4.3 | 13.9 | 0.00 | 0.00 | 0.00 | 38 | 1013.4 |
| 20260509022858 | 60 | 295 | 7.0 | 13.9 | 0.00 | 0.00 | 0.00 | 38 | 1013.3 |
| 20260509022332 | 61 | 265 | 7.8 | 14.8 | 0.00 | 0.00 | 0.00 | 36 | 1013.2 |
| 20260509022042 | 61 | 251 | 7.0 | 14.8 | 0.00 | 0.00 | 0.00 | 36 | 1013.2 |
| 20260509021238 | 61 | 219 | 6.1 | 10.4 | 0.00 | 0.00 | 0.00 | 35 | 1013.2 |
| 20260509020712 | 61 | 269 | 4.3 | 10.4 | 0.00 | 0.00 | 0.00 | 36 | 1013.1 |
| 20260509020147 | 61 | 235 | 5.2 | 11.3 | 0.00 | 0.00 | 0.00 | 37 | 1013.0 |
| 20260509015621 | 62 | 271 | 7.0 | 13.9 | 0.00 | 0.00 | 0.00 | 36 | 1013.0 |
| 20260509015052 | 62 | 219 | 5.2 | 13.9 | 0.00 | 0.00 | 0.00 | 34 | 1013.0 |
| 20260509014758 | 61 | 246 | 4.3 | 9.6 | 0.00 | 0.00 | 0.00 | 39 | 1013.1 |
| 20260509014022 | 62 | 251 | 5.2 | 9.6 | 0.00 | 0.00 | 0.00 | 35 | 1012.9 |